FW6683 Weather Reports


Display with metric or nautical units.
time (UTC)temp
F
wind
direction
speed
MPH
gust
MPH
rain 1hr
in
rain 24hr
in
rain mn
in
humidity
%
barometer
mb
20220704031542 52 255 3.0 13.0 0.00 0.00 0.00 91 1020.6
20220704031030 52 259 2.0 10.0 0.00 0.00 0.00 91 1020.5
20220704030530 52 301 3.0 10.0 0.00 0.00 0.00 90 1020.7
20220704030028 52 300 4.0 10.0 0.00 0.00 0.00 90 1020.7
20220704025530 52 262 4.0 10.0 0.00 0.00 0.00 90 1020.7
20220704025027 52 293 3.0 10.0 0.00 0.00 0.00 90 1020.7
20220704024525 53 335 1.0 10.0 0.00 0.00 0.00 89 1020.7
20220704024025 53 288 3.0 11.0 0.00 0.00 0.00 89 1020.8
20220704023525 53 308 2.0 11.0 0.00 0.00 0.00 89 1020.8
20220704023025 53 292 2.0 9.0 0.00 0.00 0.00 89 1020.8
20220704022524 53 306 3.0 9.0 0.00 0.00 0.00 89 1020.9
20220704022028 53 265 2.0 7.0 0.00 0.00 0.00 89 1020.9
20220704021528 53 226 2.0 9.0 0.00 0.00 0.00 89 1020.9
20220704021021 53 277 1.0 9.0 0.00 0.00 0.00 89 1021.0
20220704020520 53 292 2.0 9.0 0.00 0.00 0.00 89 1021.0
20220704020019 53 266 2.0 7.0 0.00 0.00 0.00 88 1021.1
20220704015520 53 273 1.0 8.0 0.00 0.00 0.00 88 1021.2
20220704015019 53 283 1.0 8.0 0.00 0.00 0.00 88 1021.3
20220704014519 53 264 2.0 7.0 0.00 0.00 0.00 88 1021.2
20220704014019 53 273 2.0 9.0 0.00 0.00 0.00 88 1021.2
20220704013518 53 274 3.0 9.0 0.00 0.00 0.00 88 1021.2
20220704013018 53 264 2.0 9.0 0.00 0.00 0.00 89 1021.3
20220704012517 52 257 3.0 11.0 0.00 0.00 0.00 89 1021.3
20220704012020 52 279 3.0 11.0 0.00 0.00 0.00 89 1021.3
20220704011523 52 266 2.0 7.0 0.00 0.00 0.00 89 1021.3
20220704011017 53 284 2.0 12.0 0.00 0.00 0.00 88 1021.3
20220704010515 53 271 2.0 8.0 0.00 0.00 0.00 88 1021.4
20220704010014 53 251 1.0 8.0 0.00 0.00 0.00 88 1021.4
20220704005513 53 278 1.0 8.0 0.00 0.00 0.00 88 1021.4
20220704005014 53 237 1.0 6.0 0.00 0.00 0.00 88 1021.4
20220704004515 53 269 2.0 6.0 0.00 0.00 0.00 88 1021.4
20220704004012 53 291 1.0 8.0 0.00 0.00 0.00 88 1021.4
20220704003512 53 276 1.0 9.0 0.00 0.00 0.00 88 1021.4
20220704003012 53 283 1.0 9.0 0.00 0.00 0.00 88 1021.5
20220704002511 53 295 2.0 9.0 0.00 0.00 0.00 88 1021.5
20220704002010 53 239 2.0 7.0 0.00 0.01 0.00 88 1021.5
20220704001510 53 262 2.0 7.0 0.00 0.01 0.00 88 1021.5
20220704001008 53 280 1.0 8.0 0.00 0.01 0.00 88 1021.5
20220704000508 53 274 1.0 11.0 0.00 0.01 0.00 87 1021.6
20220704000013 53 266 2.0 11.0 0.00 0.01 0.00 86 1021.6
20220703235505 54 290 4.0 11.0 0.00 0.01 0.00 85 1021.5
20220703235004 54 251 1.0 9.0 0.00 0.01 0.00 85 1021.5
20220703234506 54 286 3.0 9.0 0.00 0.01 0.00 85 1021.7
20220703234004 53 273 1.0 8.0 0.00 0.01 0.00 86 1021.7
20220703233503 53 282 1.0 8.0 0.00 0.01 0.00 86 1021.7
20220703233001 53 274 2.0 6.0 0.00 0.01 0.00 86 1021.7
20220703232503 54 278 2.0 5.0 0.00 0.01 0.00 86 1021.6
20220703232100 54 271 2.0 10.0 0.00 0.03 0.01 86 1021.6
20220703231600 54 275 3.0 12.0 0.00 0.03 0.01 85 1021.7
20220703231059 54 251 4.0 12.0 0.00 0.03 0.01 85 1021.7
20220703230603 54 262 3.0 8.0 0.00 0.03 0.01 85 1021.8
20220703230058 54 298 3.0 8.0 0.00 0.03 0.01 85 1021.8
20220703225558 54 267 3.0 8.0 0.00 0.03 0.01 85 1021.9
20220703225058 54 274 3.0 6.0 0.00 0.03 0.01 85 1021.8
20220703224558 55 288 2.0 9.0 0.00 0.03 0.01 85 1021.8
20220703224058 55 237 3.0 9.0 0.00 0.03 0.01 84 1022.0
20220703223558 55 319 3.0 9.0 0.00 0.03 0.01 83 1021.9
20220703223057 55 200 3.0 9.0 0.00 0.03 0.01 82 1021.9
20220703222557 55 293 3.0 10.0 0.00 0.03 0.01 82 1021.8
20220703222057 55 293 2.0 10.0 0.00 0.03 0.01 82 1021.6
20220703221557 55 292 3.0 11.0 0.00 0.03 0.01 82 1021.7
20220703221057 55 278 2.0 9.0 0.00 0.03 0.01 82 1021.7
20220703220557 55 287 1.0 7.0 0.00 0.03 0.01 82 1021.8
20220703220057 55 283 2.0 10.0 0.00 0.03 0.01 81 1021.8
20220703215557 55 257 1.0 10.0 0.00 0.03 0.01 81 1022.0
20220703215056 55 269 2.0 8.0 0.00 0.03 0.01 81 1021.9
20220703214555 55 266 2.0 8.0 0.00 0.03 0.01 81 1021.9
20220703214055 55 233 2.0 8.0 0.00 0.03 0.01 81 1021.7
20220703213558 55 288 2.0 6.0 0.00 0.03 0.01 81 1021.6
20220703213055 56 285 2.0 9.0 0.00 0.03 0.01 81 1021.7
20220703212554 56 287 3.0 9.0 0.00 0.03 0.01 81 1021.6
20220703212059 56 214 2.0 10.0 0.00 0.03 0.01 81 1021.7
20220703211554 56 228 3.0 10.0 0.00 0.03 0.01 81 1021.7
20220703211058 56 282 3.0 16.0 0.00 0.03 0.01 81 1021.7
20220703210554 56 305 3.0 11.0 0.00 0.03 0.01 81 1021.7
20220703210053 56 286 2.0 12.0 0.00 0.03 0.01 81 1021.6
20220703205554 56 275 5.0 12.0 0.00 0.03 0.01 80 1021.7
20220703205053 56 291 3.0 9.0 0.00 0.03 0.01 80 1021.6
20220703204555 56 297 4.0 10.0 0.00 0.03 0.01 80 1021.6
20220703204055 57 273 3.0 13.0 0.00 0.03 0.01 79 1021.6
20220703203554 57 288 3.0 13.0 0.00 0.03 0.01 79 1021.5
20220703203101 57 273 3.0 10.0 0.00 0.03 0.01 79 1021.6
20220703202553 57 283 2.0 9.0 0.00 0.03 0.01 78 1021.6
20220703202054 58 304 3.0 9.0 0.00 0.03 0.01 78 1021.6
20220703201552 58 280 2.0 10.0 0.00 0.03 0.01 78 1021.5
20220703201051 58 297 3.0 10.0 0.00 0.03 0.01 77 1021.6
20220703200551 58 277 3.0 11.0 0.00 0.03 0.01 77 1021.6
20220703200053 58 285 3.0 9.0 0.00 0.03 0.01 78 1021.7
20220703195551 58 301 3.0 9.0 0.00 0.03 0.01 77 1021.7
20220703195051 58 293 2.0 7.0 0.00 0.03 0.01 77 1021.6
20220703194600 59 272 2.0 8.0 0.00 0.03 0.01 77 1021.5
20220703194054 59 359 2.0 9.0 0.00 0.03 0.01 77 1021.5
20220703193551 59 279 3.0 9.0 0.00 0.03 0.01 76 1021.5
20220703193050 59 287 4.0 9.0 0.00 0.03 0.01 76 1021.5
20220703192549 59 274 3.0 9.0 0.00 0.03 0.01 75 1021.5
20220703192050 59 298 3.0 11.0 0.00 0.03 0.01 75 1021.5
20220703191552 59 302 5.0 11.0 0.00 0.03 0.01 74 1021.4
20220703191051 60 300 3.0 9.0 0.00 0.03 0.01 73 1021.5
20220703190548 60 293 3.0 8.0 0.00 0.03 0.01 73 1021.4
20220703190048 60 285 3.0 8.0 0.00 0.03 0.01 72 1021.4
20220703185548 60 316 3.0 8.0 0.00 0.03 0.01 72 1021.4
20220703185048 60 263 3.0 12.0 0.00 0.03 0.01 72 1021.3
20220703184547 60 269 2.0 10.0 0.00 0.03 0.01 72 1021.4
20220703184047 60 262 2.0 10.0 0.00 0.03 0.01 72 1021.4
20220703183548 60 324 3.0 7.0 0.00 0.03 0.01 71 1021.5
20220703183047 60 281 3.0 9.0 0.00 0.03 0.01 70 1021.5
20220703182549 60 307 3.0 11.0 0.00 0.03 0.01 70 1021.4
20220703182046 61 219 3.0 11.0 0.00 0.03 0.01 70 1021.5
20220703181546 61 297 4.0 9.0 0.00 0.03 0.01 71 1021.4
20220703181046 61 290 2.0 8.0 0.00 0.03 0.01 70 1021.4
20220703180545 61 297 3.0 8.0 0.00 0.03 0.01 70 1021.5
20220703180045 61 298 3.0 9.0 0.00 0.03 0.01 71 1021.5
20220703175544 61 304 5.0 10.0 0.00 0.03 0.01 70 1021.4
20220703175045 61 281 5.0 10.0 0.00 0.03 0.01 70 1021.4
20220703174551 62 282 3.0 10.0 0.00 0.03 0.01 69 1021.4
20220703174044 62 272 4.0 9.0 0.00 0.03 0.01 69 1021.4
20220703173545 62 292 1.0 8.0 0.00 0.03 0.01 71 1021.4
20220703173044 61 269 3.0 14.0 0.00 0.03 0.01 70 1021.5
20220703172544 62 266 4.0 14.0 0.00 0.03 0.01 69 1021.5
20220703172044 62 255 2.0 7.0 0.00 0.03 0.01 69 1021.5
20220703171544 62 250 3.0 7.0 0.00 0.03 0.01 69 1021.5
20220703171044 62 231 3.0 8.0 0.00 0.03 0.01 70 1021.5
20220703170545 62 301 3.0 8.0 0.00 0.03 0.01 69 1021.5
20220703170045 62 297 3.0 9.0 0.00 0.03 0.01 69 1021.5
20220703165545 62 254 3.0 11.0 0.00 0.03 0.01 68 1021.6
20220703165042 62 278 5.0 13.0 0.00 0.03 0.01 67 1021.6
20220703164542 62 271 3.0 13.0 0.00 0.03 0.01 67 1021.6
20220703164042 62 278 2.0 9.0 0.00 0.03 0.01 68 1021.6
20220703163545 62 278 2.0 9.0 0.00 0.03 0.01 70 1021.6
20220703163042 62 301 4.0 9.0 0.00 0.03 0.01 69 1021.5
20220703162543 62 289 4.0 8.0 0.00 0.03 0.01 69 1021.5
20220703162040 62 319 4.0 7.0 0.00 0.03 0.01 67 1021.5
20220703161541 62 314 2.0 8.0 0.00 0.03 0.01 69 1021.6
20220703161040 63 295 4.0 12.0 0.00 0.03 0.01 68 1021.5
20220703160540 62 288 3.0 12.0 0.00 0.03 0.01 67 1021.5
20220703160041 63 250 4.0 11.0 0.00 0.03 0.01 67 1021.5
20220703155540 63 250 5.0 13.0 0.00 0.03 0.01 66 1021.6
20220703155038 64 306 5.0 12.0 0.00 0.03 0.01 66 1021.6
20220703154539 63 267 2.0 11.0 0.00 0.03 0.01 68 1021.7
20220703154038 63 186 3.0 11.0 0.00 0.03 0.01 67 1021.6
20220703153538 63 321 4.0 9.0 0.00 0.03 0.01 67 1021.6
20220703153038 63 248 3.0 11.0 0.00 0.03 0.01 68 1021.7
20220703152538 63 293 3.0 11.0 0.00 0.03 0.01 68 1021.6
20220703152037 63 298 3.0 9.0 0.00 0.04 0.01 70 1021.6
20220703151536 63 184 3.0 10.0 0.00 0.04 0.01 70 1021.5
20220703151035 63 278 3.0 9.0 0.00 0.04 0.01 71 1021.6
20220703150535 63 306 4.0 10.0 0.00 0.04 0.01 69 1021.6
20220703150037 63 261 3.0 9.0 0.00 0.04 0.01 70 1021.5
20220703145535 62 264 5.0 9.0 0.00 0.04 0.01 68 1021.6
20220703145035 62 274 4.0 10.0 0.00 0.04 0.01 68 1021.7
20220703144535 62 271 4.0 10.0 0.00 0.04 0.01 68 1021.7
20220703144033 63 280 3.0 9.0 0.00 0.04 0.01 70 1021.6
20220703143533 62 285 1.0 10.0 0.00 0.04 0.01 71 1021.7
20220703143034 62 262 3.0 10.0 0.00 0.04 0.01 71 1021.7
20220703142532 62 286 3.0 9.0 0.00 0.04 0.01 71 1021.8
20220703142035 62 279 3.0 9.0 0.00 0.04 0.01 74 1021.8
20220703141531 62 308 4.0 9.0 0.00 0.04 0.01 73 1021.8
20220703141030 61 300 3.0 10.0 0.00 0.04 0.01 72 1021.9
20220703140530 61 278 4.0 11.0 0.00 0.04 0.01 70 1021.7
20220703140033 62 259 5.0 11.0 0.00 0.04 0.01 71 1021.7
20220703135529 61 246 4.0 11.0 0.00 0.04 0.01 72 1021.7
20220703135031 61 307 2.0 9.0 0.00 0.04 0.01 74 1021.7
20220703134528 61 281 4.0 9.0 0.00 0.04 0.01 73 1021.8
20220703134028 61 252 3.0 8.0 0.00 0.04 0.01 73 1021.7
20220703133532 61 283 4.0 11.0 0.00 0.04 0.01 71 1021.6
20220703133029 61 265 4.0 11.0 0.00 0.04 0.01 71 1021.6
20220703132528 61 278 3.0 9.0 0.00 0.04 0.01 71 1021.6
20220703132028 61 266 3.0 9.0 0.00 0.04 0.01 73 1021.8
20220703131528 61 265 1.0 7.0 0.00 0.04 0.01 73 1021.7
20220703131029 61 77 1.0 8.0 0.00 0.04 0.01 72 1021.9
20220703130530 61 306 3.0 8.0 0.00 0.04 0.01 70 1021.7
20220703130029 61 274 2.0 9.0 0.00 0.04 0.01 70 1021.6
20220703125530 62 275 4.0 9.0 0.00 0.04 0.01 71 1021.6
20220703125025 61 285 3.0 7.0 0.00 0.04 0.01 71 1021.7
20220703124529 60 312 1.0 9.0 0.00 0.04 0.01 74 1021.8
20220703124023 60 313 3.0 9.0 0.00 0.04 0.01 74 1021.9
20220703123523 60 281 2.0 7.0 0.00 0.04 0.01 76 1022.0
20220703123022 60 301 2.0 6.0 0.00 0.04 0.01 76 1022.0
20220703122522 59 285 2.0 6.0 0.00 0.04 0.01 74 1022.0
20220703122023 59 297 2.0 5.0 0.00 0.04 0.01 74 1022.0
20220703121522 60 283 2.0 6.0 0.00 0.04 0.01 75 1022.0
20220703121021 60 278 3.0 7.0 0.00 0.04 0.01 74 1022.0
20220703120521 60 300 3.0 7.0 0.00 0.04 0.01 72 1022.0
20220703120022 60 282 2.0 8.0 0.00 0.04 0.01 76 1022.0
20220703115518 59 298 4.0 8.0 0.00 0.04 0.01 75 1022.0
20220703115017 58 286 2.0 6.0 0.00 0.04 0.01 83 1022.0
20220703114516 58 316 0.0 4.0 0.00 0.04 0.01 83 1022.1
20220703114017 57 356 0.0 10.0 0.00 0.04 0.01 82 1022.1
20220703113518 57 304 3.0 10.0 0.00 0.04 0.01 79 1022.1
20220703113016 57 281 3.0 8.0 0.00 0.04 0.01 80 1022.0
20220703112515 58 278 2.0 6.0 0.00 0.04 0.01 80 1022.0
20220703112018 58 287 0.0 6.0 0.00 0.04 0.01 80 1021.9
20220703111524 58 330 1.0 9.0 0.00 0.04 0.01 79 1021.9
20220703111013 58 307 4.0 9.0 0.00 0.04 0.01 77 1021.8
20220703110512 58 304 3.0 7.0 0.00 0.04 0.01 78 1021.7
20220703110024 58 288 2.0 8.0 0.00 0.04 0.01 78 1021.7
20220703105513 58 274 2.0 9.0 0.00 0.04 0.01 77 1021.7
20220703105012 58 290 4.0 9.0 0.00 0.04 0.01 77 1021.7
20220703104511 58 281 3.0 8.0 0.00 0.04 0.01 78 1021.5
20220703104011 58 276 3.0 8.0 0.00 0.04 0.01 78 1021.5
20220703103510 58 288 4.0 11.0 0.00 0.04 0.01 79 1021.5
20220703103017 57 264 3.0 11.0 0.00 0.04 0.01 80 1021.5
20220703102510 57 303 3.0 9.0 0.00 0.04 0.01 81 1021.5
20220703102010 57 291 4.0 9.0 0.00 0.04 0.01 80 1021.6
20220703101510 57 302 5.0 10.0 0.00 0.04 0.01 79 1021.4
20220703101008 58 269 4.0 10.0 0.00 0.04 0.01 78 1021.5
20220703100509 58 290 2.0 8.0 0.00 0.04 0.01 78 1021.4
20220703100011 58 298 3.0 9.0 0.00 0.04 0.01 79 1021.3
20220703095507 57 252 3.0 9.0 0.00 0.04 0.01 79 1021.4
20220703095007 58 287 2.0 6.0 0.00 0.04 0.01 80 1021.3
20220703094506 58 287 3.0 9.0 0.00 0.04 0.01 80 1021.3
20220703094006 58 277 2.0 9.0 0.00 0.04 0.01 81 1021.2
20220703093504 57 277 2.0 11.0 0.00 0.04 0.01 82 1021.2
20220703093003 57 319 4.0 11.0 0.00 0.04 0.01 82 1021.2
20220703092502 57 274 3.0 10.0 0.00 0.04 0.01 81 1021.2
20220703092002 57 297 5.0 10.0 0.00 0.04 0.01 82 1021.1
20220703091600 57 288 4.0 9.0 0.00 0.04 0.01 83 1021.0
20220703091100 56 295 3.0 8.0 0.00 0.04 0.01 83 1021.1
20220703090557 56 281 2.0 7.0 0.00 0.04 0.01 85 1021.1
20220703090059 56 275 3.0 7.0 0.00 0.04 0.01 83 1021.1
20220703085555 56 262 4.0 8.0 0.00 0.04 0.01 84 1021.1
20220703085058 56 319 4.0 8.0 0.00 0.04 0.01 85 1021.1
20220703084558 55 278 1.0 6.0 0.00 0.04 0.01 86 1021.0
20220703084054 55 264 3.0 8.0 0.00 0.04 0.01 86 1021.0
20220703083556 55 291 2.0 8.0 0.00 0.04 0.01 86 1020.9
20220703083056 55 309 3.0 7.0 0.00 0.04 0.01 86 1020.9
20220703082552 55 281 3.0 8.0 0.00 0.04 0.01 87 1020.8
20220703082052 54 279 3.0 8.0 0.00 0.04 0.01 86 1020.8
20220703081551 54 285 3.0 8.0 0.00 0.04 0.01 86 1020.7
20220703081050 54 288 2.0 8.0 0.00 0.04 0.01 86 1020.7
20220703080550 54 281 2.0 10.0 0.00 0.04 0.01 87 1020.7
20220703080050 54 302 3.0 10.0 0.00 0.04 0.01 86 1020.7
20220703075548 54 304 3.0 10.0 0.00 0.04 0.01 86 1020.6
20220703075048 54 302 3.0 9.0 0.00 0.04 0.01 86 1020.6
20220703074547 55 293 4.0 9.0 0.00 0.04 0.01 86 1020.5
20220703074048 55 262 4.0 9.0 0.00 0.04 0.01 86 1020.4
20220703073547 55 302 1.0 8.0 0.00 0.04 0.01 87 1020.5
20220703073048 55 283 2.0 10.0 0.00 0.04 0.01 87 1020.4
20220703072548 54 295 3.0 12.0 0.00 0.04 0.01 87 1020.3
20220703072045 54 303 6.0 12.0 0.00 0.04 0.01 86 1020.3
20220703071545 54 295 4.0 10.0 0.00 0.04 0.01 87 1020.3
20220703071044 55 310 3.0 10.0 0.00 0.04 0.01 87 1020.3
20220703070543 54 299 5.0 11.0 0.00 0.04 0.01 87 1020.1
20220703070045 54 267 4.0 13.0 0.00 0.04 0.01 87 1020.1
20220703065541 54 290 4.0 13.0 0.00 0.04 0.01 87 1020.0
20220703065040 54 294 3.0 10.0 0.00 0.04 0.01 88 1019.9
20220703064539 54 290 4.0 8.0 0.00 0.04 0.01 89 1019.9
20220703064039 53 292 4.0 8.0 0.00 0.04 0.01 89 1019.8
20220703063542 53 264 4.0 8.0 0.00 0.04 0.01 88 1019.7
20220703063041 53 259 3.0 7.0 0.00 0.04 0.01 88 1019.7
20220703062537 53 274 3.0 10.0 0.00 0.04 0.01 88 1019.7
20220703062037 53 274 3.0 13.0 0.00 0.04 0.01 88 1019.7
20220703061541 54 266 3.0 13.0 0.00 0.04 0.01 88 1019.6
20220703061035 54 280 2.0 10.0 0.00 0.04 0.01 89 1019.5
20220703060537 54 292 3.0 9.0 0.00 0.04 0.01 89 1019.5
20220703060035 53 274 2.0 10.0 0.00 0.04 0.01 90 1019.5
20220703055534 53 250 3.0 10.0 0.00 0.04 0.01 90 1019.4
20220703055033 53 305 3.0 9.0 0.00 0.04 0.01 90 1019.4
20220703054533 53 276 2.0 13.0 0.00 0.04 0.01 90 1019.2
20220703054031 53 288 4.0 13.0 0.00 0.04 0.01 90 1019.2
20220703053530 53 271 4.0 11.0 0.00 0.04 0.01 90 1019.3
20220703053029 53 327 2.0 9.0 0.00 0.04 0.01 90 1019.2
20220703052527 52 243 3.0 9.0 0.00 0.04 0.01 91 1019.2
20220703052027 52 274 3.0 8.0 0.00 0.04 0.01 91 1019.2
20220703051527 52 283 3.0 8.0 0.00 0.04 0.01 91 1019.1
20220703051025 52 326 2.0 8.0 0.00 0.04 0.01 91 1019.2
20220703050525 52 288 3.0 8.0 0.00 0.04 0.01 91 1019.1
20220703050025 52 268 2.0 9.0 0.00 0.04 0.01 91 1019.1
20220703045524 52 277 2.0 9.0 0.00 0.04 0.01 91 1019.1
20220703045023 52 260 2.0 10.0 0.00 0.04 0.01 91 1019.0
20220703044522 52 280 2.0 9.0 0.00 0.04 0.01 91 1019.0
20220703044020 52 286 1.0 8.0 0.00 0.04 0.01 91 1018.9
20220703043523 52 276 2.0 8.0 0.00 0.04 0.01 91 1018.9
20220703043025 52 291 1.0 11.0 0.00 0.04 0.01 91 1018.9
20220703042517 52 278 3.0 11.0 0.00 0.04 0.01 92 1018.9
20220703042019 52 293 2.0 10.0 0.00 0.04 0.01 92 1018.9
20220703041518 52 283 2.0 8.0 0.00 0.04 0.01 92 1018.9
20220703041019 52 267 3.0 9.0 0.00 0.04 0.01 92 1018.8
20220703040514 52 274 1.0 9.0 0.00 0.04 0.01 92 1018.9
20220703040013 52 278 1.0 7.0 0.00 0.04 0.01 92 1018.8
20220703035514 52 293 2.0 8.0 0.00 0.04 0.01 92 1018.7
20220703035012 52 278 1.0 8.0 0.00 0.04 0.01 92 1018.6
20220703034512 52 283 2.0 9.0 0.00 0.04 0.01 92 1018.6
20220703034012 52 333 1.0 9.0 0.00 0.04 0.01 92 1018.7
20220703033511 52 278 1.0 12.0 0.00 0.04 0.01 92 1018.7
20220703033011 52 274 1.0 12.0 0.00 0.04 0.01 92 1018.7
20220703032509 52 360 1.0 8.0 0.00 0.04 0.01 92 1018.7
20220703032010 52 257 2.0 9.0 0.00 0.04 0.01 92 1018.7